Precipitable_Water
1.45 1.40 1.45 1.55 1.63 1.60 1.58 1.59 1.63 1.65 1.68 1.71 1.80 1.80 1.84 1.87 1.83 1.83 1.88 1.95 2.00 1.97 1.94 1.94 2.00 2.08 2.06 1.96 1.99 2.01 2.07 2.00 2.02 2.10 2.11 2.11 2.08 2.09 2.11 2.11 2.08 2.05 2.01 1.97 1.94 1.92 1.89 1.88 1.89 1.89 1.87 1.89 1.93 1.92 1.86 1.75 1.66 1.59 1.52 1.54 1.67 1.73 1.77 1.79 1.77 1.77 1.75 1.72 1.69 1.61 1.55 1.50 1.47 1.45 1.46 1.47 1.47 1.48 1.50 1.50 1.51 1.53 1.54 1.50 1.49
1.49 1.50 1.58 1.63 1.63 1.62 1.64 1.64 1.63 1.65 1.67 1.71 1.78 1.80 1.80 1.80 1.82 1.88 1.88 1.91 1.94 1.92 1.90 1.87 1.91 1.96 2.02 1.98 2.00 2.07 2.09 2.07 1.99 2.04 2.07 2.10 2.12 2.13 2.23 2.12 2.16 2.09 2.01 1.98 1.95 1.93 1.90 1.87 1.86 1.87 1.85 1.84 1.86 1.88 1.88 1.83 1.78 1.71 1.64 1.52 1.48 1.57 1.69 1.73 1.77 1.77 1.79 1.80 1.81 1.79 1.71 1.65 1.59 1.55 1.53 1.51 1.50 1.49 1.49 1.51 1.54 1.55 1.56 1.54 1.53
1.56 1.59 1.66 1.66 1.58 1.59 1.63 1.64 1.63 1.65 1.69 1.71 1.80 1.76 1.75 1.77 1.84 1.85 1.82 1.83 1.88 1.90 1.89 1.87 1.86 1.91 1.93 1.97 2.04 2.06 1.93 2.02 2.00 2.04 2.07 2.05 2.09 2.12 2.26 2.17 2.22 2.21 2.10 2.06 2.01 1.98 1.93 1.89 1.87 1.88 1.88 1.87 1.87 1.88 1.87 1.86 1.82 1.78 1.74 1.66 1.53 1.46 1.50 1.60 1.67 1.71 1.75 1.79 1.81 1.81 1.82 1.80 1.77 1.72 1.65 1.64 1.61 1.56 1.54 1.54 1.55 1.55 1.55 1.56 1.55
1.64 1.63 1.65 1.64 1.57 1.56 1.57 1.56 1.59 1.65 1.66 1.69 1.67 1.64 1.67 1.75 1.82 1.80 1.80 1.83 1.83 1.84 1.87 1.85 1.82 1.88 1.92 1.97 2.07 2.01 1.91 1.98 2.01 2.03 2.07 2.09 2.12 2.16 2.17 2.14 2.18 2.11 2.14 2.14 2.06 2.00 1.93 1.91 1.90 1.90 1.92 1.92 1.91 1.89 1.87 1.86 1.85 1.81 1.78 1.73 1.67 1.60 1.53 1.49 1.54 1.63 1.73 1.76 1.78 1.79 1.81 1.83 1.84 1.80 1.78 1.77 1.71 1.69 1.64 1.61 1.60 1.59 1.59 1.57 1.56
1.68 1.65 1.60 1.55 1.50 1.47 1.46 1.52 1.58 1.61 1.62 1.63 1.60 1.57 1.58 1.64 1.72 1.76 1.78 1.80 1.79 1.78 1.84 1.84 1.82 1.88 1.94 1.99 2.09 2.05 2.03 2.02 2.01 2.10 2.10 2.11 2.11 2.10 2.07 2.08 2.07 2.01 2.06 2.11 2.17 2.06 1.97 1.92 1.91 1.91 1.91 1.93 1.93 1.91 1.87 1.85 1.85 1.84 1.80 1.75 1.73 1.69 1.64 1.60 1.55 1.51 1.55 1.61 1.69 1.76 1.77 1.77 1.77 1.77 1.77 1.77 1.75 1.74 1.74 1.73 1.70 1.66 1.64 1.63 1.62
1.72 1.67 1.60 1.48 1.41 1.38 1.40 1.47 1.53 1.55 1.55 1.56 1.53 1.52 1.51 1.57 1.60 1.63 1.68 1.74 1.71 1.68 1.76 1.78 1.83 1.91 1.93 1.99 2.03 2.06 2.12 2.15 2.05 2.06 2.10 2.11 2.14 2.12 2.07 2.00 1.99 2.00 2.10 2.14 2.11 2.05 2.00 1.95 1.94 1.94 1.95 1.96 1.95 1.94 1.93 1.90 1.87 1.84 1.82 1.79 1.75 1.71 1.70 1.70 1.68 1.61 1.58 1.53 1.53 1.57 1.63 1.69 1.71 1.72 1.73 1.74 1.71 1.67 1.67 1.68 1.69 1.71 1.71 1.71 1.69
1.77 1.69 1.60 1.48 1.38 1.35 1.38 1.42 1.49 1.46 1.47 1.52 1.48 1.46 1.51 1.54 1.56 1.55 1.60 1.61 1.61 1.63 1.74 1.77 1.75 1.80 1.86 1.93 1.93 1.98 2.08 2.15 2.10 2.08 2.11 2.09 2.08 2.09 2.10 2.06 1.98 1.93 2.02 2.05 2.03 1.99 1.95 1.96 1.95 1.96 1.94 1.94 1.98 1.94 1.95 1.97 1.92 1.87 1.82 1.80 1.79 1.75 1.75 1.75 1.71 1.70 1.67 1.67 1.59 1.57 1.58 1.59 1.60 1.62 1.63 1.65 1.68 1.68 1.68 1.65 1.64 1.64 1.64 1.64 1.64
1.80 1.72 1.59 1.49 1.40 1.41 1.43 1.37 1.41 1.42 1.42 1.46 1.45 1.40 1.47 1.52 1.58 1.58 1.49 1.49 1.51 1.60 1.71 1.76 1.82 1.79 1.87 1.86 1.86 1.91 1.96 2.05 2.09 2.08 2.11 2.11 2.07 2.08 2.12 2.11 2.07 2.00 1.98 1.99 1.97 1.93 1.95 1.98 2.00 2.02 2.08 2.00 1.98 1.97 1.93 1.90 1.94 1.91 1.88 1.84 1.80 1.78 1.77 1.76 1.75 1.73 1.79 1.73 1.63 1.62 1.64 1.64 1.63 1.62 1.63 1.66 1.66 1.66 1.64 1.62 1.59 1.57 1.57 1.58 1.59
1.78 1.73 1.64 1.57 1.49 1.43 1.41 1.36 1.47 1.40 1.40 1.41 1.38 1.40 1.44 1.48 1.52 1.55 1.51 1.46 1.50 1.54 1.67 1.78 1.81 1.79 1.83 1.84 1.83 1.89 1.89 1.96 2.03 2.04 2.08 2.08 2.07 2.08 2.11 2.12 2.12 2.09 2.07 2.05 2.00 1.98 1.98 1.99 2.02 2.06 2.06 2.02 1.96 1.97 1.97 1.97 2.01 1.99 1.92 1.93 1.90 1.85 1.81 1.78 1.76 1.75 1.75 1.74 1.70 1.66 1.67 1.68 1.67 1.66 1.63 1.62 1.63 1.64 1.64 1.62 1.61 1.59 1.56 1.56 1.55
1.74 1.71 1.63 1.60 1.49 1.44 1.36 1.38 1.42 1.44 1.44 1.44 1.40 1.43 1.47 1.52 1.45 1.52 1.55 1.50 1.49 1.53 1.63 1.73 1.79 1.77 1.78 1.81 1.81 1.88 1.90 1.94 2.00 2.05 2.04 2.04 2.06 2.03 2.05 2.10 2.10 2.10 2.09 2.07 2.03 1.98 1.97 1.98 1.99 2.00 2.03 2.02 2.04 1.94 1.89 1.91 1.95 1.95 1.90 1.90 1.92 1.93 1.91 1.87 1.83 1.81 1.81 1.80 1.77 1.75 1.72 1.71 1.71 1.70 1.68 1.66 1.65 1.65 1.65 1.65 1.64 1.64 1.61 1.55 1.50
1.64 1.65 1.59 1.53 1.44 1.40 1.39 1.44 1.45 1.45 1.45 1.43 1.41 1.40 1.47 1.52 1.53 1.53 1.59 1.57 1.51 1.54 1.67 1.73 1.73 1.72 1.70 1.73 1.79 1.84 1.90 1.97 2.02 1.99 2.01 2.02 2.04 2.07 2.10 2.08 2.09 2.04 2.04 2.04 2.02 2.00 1.96 1.95 1.96 1.98 2.01 1.95 1.93 1.94 1.89 1.86 1.84 1.85 1.86 1.88 1.88 1.89 1.90 1.90 1.91 1.90 1.89 1.87 1.84 1.82 1.81 1.80 1.80 1.78 1.77 1.76 1.73 1.70 1.67 1.65 1.66 1.64 1.62 1.57 1.52
1.53 1.52 1.52 1.47 1.42 1.43 1.43 1.47 1.44 1.42 1.41 1.38 1.35 1.37 1.42 1.47 1.52 1.54 1.49 1.52 1.55 1.57 1.72 1.73 1.70 1.68 1.61 1.63 1.75 1.80 1.83 1.93 1.98 1.96 1.96 1.99 2.00 2.03 2.04 2.10 2.10 2.05 2.00 2.00 2.01 1.98 1.96 1.95 1.94 1.93 1.94 1.94 1.95 1.90 1.90 1.89 1.86 1.82 1.81 1.81 1.84 1.88 1.89 1.89 1.89 1.90 1.91 1.92 1.92 1.90 1.87 1.86 1.86 1.86 1.86 1.84 1.81 1.75 1.69 1.66 1.66 1.68 1.67 1.63 1.59
1.43 1.40 1.34 1.40 1.43 1.47 1.46 1.45 1.45 1.41 1.40 1.38 1.41 1.42 1.47 1.48 1.49 1.53 1.46 1.38 1.40 1.56 1.69 1.76 1.65 1.56 1.55 1.53 1.57 1.73 1.77 1.83 1.89 1.92 1.92 1.97 2.01 1.99 2.04 2.07 2.08 2.03 1.99 1.98 1.96 1.95 1.95 1.95 1.93 1.92 1.89 1.86 1.86 1.85 1.85 1.83 1.80 1.78 1.77 1.79 1.84 1.89 1.90 1.90 1.90 1.92 1.91 1.91 1.92 1.93 1.90 1.89 1.89 1.88 1.86 1.86 1.85 1.81 1.74 1.69 1.68 1.71 1.72 1.72 1.70
1.40 1.32 1.28 1.30 1.36 1.41 1.44 1.42 1.44 1.42 1.42 1.46 1.47 1.47 1.44 1.43 1.45 1.38 1.42 1.32 1.32 1.49 1.64 1.68 1.54 1.44 1.34 1.34 1.44 1.53 1.63 1.72 1.81 1.86 1.88 1.92 1.95 1.93 1.97 1.98 2.01 2.02 1.98 1.97 1.97 1.98 1.97 1.96 1.95 1.90 1.89 1.86 1.82 1.79 1.80 1.81 1.80 1.79 1.78 1.78 1.79 1.80 1.83 1.88 1.92 1.93 1.94 1.96 1.95 1.95 1.94 1.93 1.94 1.92 1.89 1.89 1.87 1.86 1.81 1.73 1.70 1.71 1.73 1.74 1.73
1.48 1.40 1.28 1.28 1.28 1.32 1.36 1.41 1.41 1.43 1.39 1.39 1.42 1.39 1.39 1.38 1.37 1.30 1.35 1.44 1.39 1.51 1.57 1.63 1.44 1.52 1.53 1.37 1.26 1.22 1.36 1.52 1.71 1.79 1.85 1.90 1.94 1.92 1.95 1.93 1.94 1.97 2.01 2.00 1.96 1.96 1.96 1.96 1.92 1.90 1.90 1.88 1.86 1.82 1.78 1.76 1.74 1.73 1.75 1.75 1.76 1.77 1.78 1.81 1.86 1.91 1.93 1.96 1.95 1.96 1.96 1.96 1.96 1.94 1.92 1.91 1.88 1.87 1.84 1.78 1.73 1.72 1.72 1.73 1.73
1.60 1.55 1.46 1.39 1.33 1.28 1.32 1.35 1.38 1.41 1.38 1.35 1.38 1.35 1.37 1.38 1.36 1.37 1.37 1.26 1.29 1.35 1.56 1.61 1.55 1.48 1.29 1.29 1.32 1.32 1.12 1.27 1.43 1.66 1.85 1.88 1.93 1.92 1.91 1.91 1.96 1.94 1.95 1.91 1.94 1.96 1.93 1.92 1.88 1.87 1.85 1.85 1.85 1.83 1.81 1.79 1.74 1.72 1.70 1.70 1.70 1.74 1.79 1.81 1.86 1.91 1.96 2.00 1.98 1.95 1.95 1.94 1.93 1.93 1.93 1.91 1.87 1.85 1.83 1.81 1.79 1.77 1.74 1.74 1.77
1.63 1.60 1.57 1.51 1.48 1.42 1.39 1.39 1.38 1.40 1.41 1.37 1.37 1.38 1.41 1.42 1.41 1.39 1.42 1.38 1.32 1.40 1.54 1.64 1.62 1.66 1.48 1.36 1.29 1.24 1.22 1.34 1.45 1.49 1.73 1.76 1.88 1.92 1.90 1.90 1.92 1.94 1.90 1.89 1.95 1.94 1.91 1.88 1.87 1.87 1.87 1.86 1.84 1.81 1.80 1.80 1.80 1.76 1.72 1.68 1.63 1.60 1.63 1.73 1.83 1.91 1.96 1.97 1.96 2.00 2.01 1.99 1.95 1.94 1.93 1.91 1.91 1.90 1.90 1.90 1.89 1.85 1.81 1.79 1.80
1.62 1.62 1.60 1.58 1.53 1.49 1.44 1.40 1.39 1.40 1.41 1.42 1.43 1.45 1.47 1.48 1.54 1.54 1.51 1.55 1.48 1.43 1.43 1.63 1.66 1.64 1.67 1.62 1.52 1.34 1.34 1.47 1.47 1.28 1.62 1.79 1.82 1.86 1.85 1.86 1.88 1.89 1.90 1.87 1.87 1.87 1.91 1.86 1.87 1.85 1.87 1.88 1.86 1.81 1.78 1.78 1.78 1.74 1.72 1.67 1.62 1.55 1.51 1.53 1.63 1.77 1.92 2.00 2.02 2.03 2.03 2.03 1.97 1.95 1.96 1.97 1.97 1.96 1.96 1.94 1.93 1.93 1.90 1.85 1.85
1.63 1.64 1.62 1.61 1.57 1.54 1.50 1.45 1.44 1.42 1.46 1.46 1.45 1.47 1.53 1.55 1.62 1.60 1.59 1.62 1.59 1.45 1.47 1.52 1.63 1.66 1.68 1.67 1.65 1.69 1.66 1.55 1.40 1.48 1.33 1.60 1.77 1.74 1.77 1.82 1.83 1.85 1.85 1.86 1.86 1.85 1.85 1.87 1.85 1.84 1.82 1.83 1.79 1.77 1.72 1.71 1.72 1.70 1.69 1.68 1.64 1.58 1.47 1.39 1.42 1.52 1.65 1.85 2.00 2.03 2.02 2.01 1.98 1.96 1.97 1.96 1.96 1.94 1.98 1.98 1.94 1.92 1.92 1.90 1.90
1.67 1.69 1.68 1.65 1.63 1.63 1.64 1.61 1.57 1.56 1.54 1.53 1.54 1.57 1.60 1.63 1.65 1.66 1.67 1.66 1.64 1.56 1.54 1.58 1.46 1.48 1.65 1.61 1.61 1.69 1.73 1.75 1.72 1.52 1.42 1.33 1.43 1.68 1.79 1.79 1.79 1.79 1.80 1.82 1.85 1.85 1.83 1.85 1.84 1.86 1.86 1.84 1.82 1.76 1.71 1.70 1.69 1.66 1.64 1.61 1.60 1.56 1.50 1.41 1.33 1.32 1.42 1.56 1.78 1.95 2.00 2.00 2.00 1.98 1.98 1.98 1.97 1.94 1.93 1.94 1.93 1.93 1.95 1.96 1.95
1.71 1.73 1.78 1.76 1.74 1.68 1.67 1.67 1.67 1.67 1.68 1.65 1.65 1.65 1.61 1.61 1.63 1.65 1.65 1.69 1.70 1.71 1.64 1.58 1.57 1.53 1.56 1.55 1.59 1.64 1.72 1.77 1.76 1.71 1.53 1.38 1.35 1.38 1.42 1.67 1.71 1.73 1.75 1.78 1.84 1.87 1.87 1.88 1.90 1.88 1.86 1.82 1.82 1.81 1.79 1.75 1.73 1.68 1.60 1.55 1.50 1.47 1.45 1.43 1.36 1.29 1.27 1.37 1.55 1.77 1.91 1.94 1.95 1.96 1.95 1.95 1.94 1.92 1.92 1.95 1.99 1.98 2.00 2.00 1.98
1.70 1.74 1.78 1.83 1.82 1.79 1.74 1.69 1.68 1.71 1.73 1.72 1.70 1.69 1.67 1.64 1.65 1.65 1.69 1.68 1.76 1.75 1.69 1.67 1.65 1.67 1.66 1.61 1.56 1.61 1.64 1.67 1.71 1.66 1.64 1.58 1.34 1.35 1.39 1.37 1.37 1.54 1.73 1.72 1.76 1.82 1.87 1.89 1.89 1.89 1.86 1.83 1.82 1.82 1.82 1.77 1.73 1.67 1.61 1.54 1.41 1.32 1.32 1.28 1.25 1.25 1.25 1.27 1.41 1.61 1.78 1.90 1.91 1.90 1.87 1.87 1.87 1.89 1.93 1.96 2.00 1.96 1.97 1.99 2.00
1.77 1.79 1.81 1.87 1.89 1.88 1.83 1.80 1.77 1.73 1.72 1.71 1.67 1.67 1.70 1.69 1.71 1.71 1.69 1.70 1.72 1.75 1.73 1.71 1.70 1.68 1.67 1.66 1.62 1.61 1.56 1.53 1.55 1.63 1.62 1.50 1.45 1.44 1.42 1.45 1.45 1.44 1.63 1.80 1.79 1.80 1.82 1.85 1.84 1.84 1.85 1.84 1.86 1.86 1.81 1.79 1.76 1.71 1.63 1.56 1.40 1.23 1.18 1.17 1.18 1.19 1.23 1.24 1.30 1.45 1.62 1.79 1.81 1.78 1.79 1.82 1.86 1.88 1.91 1.93 1.94 1.94 1.95 1.96 1.96
1.79 1.81 1.83 1.88 1.90 1.90 1.89 1.87 1.84 1.82 1.77 1.76 1.72 1.68 1.71 1.73 1.73 1.71 1.70 1.73 1.76 1.75 1.74 1.68 1.66 1.66 1.64 1.65 1.65 1.67 1.67 1.66 1.68 1.72 1.71 1.63 1.55 1.46 1.44 1.47 1.49 1.55 1.69 1.76 1.84 1.83 1.83 1.79 1.84 1.86 1.86 1.88 1.90 1.92 1.91 1.89 1.86 1.83 1.75 1.66 1.49 1.20 1.08 1.13 1.15 1.18 1.21 1.24 1.29 1.41 1.51 1.64 1.68 1.69 1.70 1.72 1.73 1.72 1.72 1.75 1.78 1.82 1.87 1.91 1.95
1.73 1.74 1.77 1.80 1.83 1.82 1.84 1.86 1.86 1.86 1.84 1.81 1.80 1.81 1.79 1.78 1.76 1.74 1.73 1.71 1.74 1.76 1.72 1.70 1.69 1.65 1.65 1.70 1.68 1.68 1.69 1.77 1.78 1.78 1.77 1.74 1.63 1.47 1.56 1.51 1.31 1.41 1.65 1.74 1.69 1.84 1.91 1.89 1.88 1.90 1.90 1.89 1.91 1.94 1.96 1.94 1.92 1.91 1.84 1.77 1.57 1.33 1.16 1.17 1.23 1.27 1.29 1.31 1.32 1.41 1.50 1.59 1.65 1.65 1.66 1.66 1.66 1.68 1.70 1.74 1.78 1.82 1.84 1.88 1.91
1.72 1.72 1.77 1.79 1.80 1.82 1.85 1.86 1.88 1.89 1.90 1.90 1.89 1.88 1.88 1.86 1.85 1.81 1.78 1.79 1.81 1.78 1.76 1.76 1.76 1.75 1.77 1.70 1.68 1.66 1.68 1.77 1.80 1.78 1.71 1.64 1.57 1.52 1.47 1.48 1.37 1.28 1.46 1.52 1.69 1.63 1.78 1.91 1.98 1.97 1.94 1.93 1.93 1.97 1.98 1.97 1.94 1.93 1.85 1.74 1.61 1.55 1.44 1.28 1.29 1.33 1.31 1.33 1.37 1.43 1.55 1.64 1.69 1.71 1.70 1.68 1.68 1.69 1.70 1.71 1.73 1.75 1.77 1.78 1.80
1.79 1.81 1.84 1.80 1.80 1.83 1.84 1.85 1.89 1.90 1.90 1.91 1.94 1.93 1.92 1.91 1.90 1.89 1.88 1.88 1.84 1.81 1.77 1.73 1.68 1.70 1.73 1.74 1.74 1.72 1.70 1.71 1.72 1.67 1.71 1.68 1.64 1.61 1.54 1.37 1.32 1.32 1.22 1.33 1.43 1.55 1.60 1.83 1.91 1.95 1.97 1.96 1.93 1.94 1.96 1.95 1.92 1.91 1.90 1.80 1.65 1.60 1.55 1.47 1.36 1.37 1.35 1.38 1.41 1.47 1.58 1.70 1.78 1.81 1.81 1.79 1.78 1.81 1.77 1.74 1.73 1.75 1.76 1.78 1.78
1.86 1.86 1.86 1.84 1.80 1.79 1.82 1.83 1.87 1.92 1.97 1.97 1.96 1.96 1.96 1.92 1.91 1.91 1.86 1.91 1.83 1.78 1.75 1.73 1.70 1.73 1.74 1.76 1.72 1.71 1.75 1.73 1.71 1.70 1.71 1.69 1.68 1.70 1.66 1.57 1.33 1.16 1.22 1.14 1.19 1.27 1.52 1.52 1.77 1.91 1.89 1.92 1.97 1.96 1.97 1.95 1.90 1.90 1.91 1.85 1.75 1.66 1.61 1.58 1.52 1.44 1.41 1.40 1.42 1.49 1.58 1.71 1.77 1.80 1.81 1.81 1.84 1.87 1.86 1.81 1.79 1.80 1.79 1.79 1.77
1.88 1.90 1.86 1.84 1.81 1.79 1.80 1.83 1.85 1.89 1.94 1.98 1.99 1.99 1.99 1.97 1.94 1.91 1.86 1.88 1.85 1.78 1.76 1.71 1.71 1.72 1.72 1.72 1.72 1.73 1.77 1.80 1.77 1.75 1.72 1.70 1.72 1.71 1.70 1.59 1.51 1.26 1.13 1.08 1.11 1.10 1.26 1.41 1.42 1.73 1.90 1.87 1.85 1.95 1.94 1.90 1.89 1.89 1.86 1.83 1.79 1.73 1.69 1.63 1.62 1.58 1.51 1.49 1.46 1.51 1.58 1.66 1.70 1.72 1.73 1.76 1.81 1.85 1.85 1.84 1.83 1.79 1.80 1.80 1.80
1.94 1.91 1.87 1.83 1.84 1.87 1.84 1.84 1.86 1.86 1.88 1.94 1.97 1.98 1.98 1.97 1.97 1.95 1.94 1.95 1.89 1.87 1.83 1.78 1.74 1.74 1.73 1.75 1.78 1.77 1.83 1.84 1.82 1.82 1.76 1.72 1.70 1.68 1.64 1.62 1.58 1.38 1.32 1.17 1.15 1.25 1.19 1.33 1.42 1.44 1.70 1.77 1.82 1.86 1.92 1.88 1.89 1.88 1.82 1.77 1.79 1.75 1.69 1.70 1.69 1.64 1.59 1.56 1.56 1.56 1.55 1.57 1.60 1.63 1.65 1.67 1.69 1.71 1.76 1.77 1.76 1.76 1.76 1.76 1.78
1.98 1.94 1.89 1.86 1.86 1.87 1.87 1.84 1.84 1.84 1.89 1.90 1.94 1.95 1.97 1.95 1.97 1.95 1.97 1.96 1.90 1.85 1.86 1.85 1.83 1.80 1.75 1.71 1.75 1.74 1.80 1.83 1.87 1.87 1.83 1.77 1.71 1.68 1.64 1.64 1.60 1.55 1.47 1.40 1.20 1.34 1.42 1.27 1.35 1.47 1.48 1.65 1.82 1.85 1.84 1.86 1.91 1.94 1.91 1.82 1.80 1.78 1.66 1.63 1.69 1.70 1.67 1.63 1.59 1.58 1.57 1.57 1.58 1.61 1.61 1.62 1.63 1.65 1.65 1.65 1.65 1.66 1.68 1.69 1.70
2.02 2.00 1.95 1.91 1.91 1.88 1.88 1.87 1.86 1.86 1.87 1.88 1.92 1.95 1.97 1.96 1.96 1.94 1.94 1.94 1.89 1.83 1.83 1.88 1.87 1.86 1.82 1.75 1.75 1.75 1.80 1.82 1.84 1.86 1.84 1.81 1.77 1.70 1.65 1.62 1.60 1.60 1.60 1.50 1.35 1.27 1.48 1.43 1.43 1.50 1.57 1.59 1.75 1.77 1.80 1.80 1.85 1.89 1.96 1.90 1.88 1.86 1.74 1.64 1.65 1.67 1.68 1.67 1.67 1.67 1.65 1.61 1.59 1.57 1.55 1.58 1.60 1.61 1.60 1.60 1.60 1.58 1.58 1.59 1.61
2.06 2.04 2.01 1.99 1.99 1.97 1.93 1.92 1.90 1.88 1.86 1.86 1.90 1.92 1.94 1.95 1.98 1.96 1.97 1.95 1.88 1.86 1.89 1.89 1.91 1.87 1.83 1.79 1.77 1.80 1.84 1.78 1.79 1.82 1.82 1.83 1.83 1.79 1.74 1.69 1.63 1.65 1.60 1.49 1.37 1.33 1.46 1.61 1.58 1.55 1.67 1.68 1.60 1.70 1.71 1.77 1.79 1.84 1.93 1.92 1.87 1.87 1.86 1.79 1.74 1.71 1.68 1.66 1.64 1.63 1.64 1.65 1.70 1.72 1.64 1.61 1.58 1.57 1.60 1.57 1.55 1.54 1.54 1.52 1.52
2.09 2.07 2.05 2.04 2.04 2.03 1.99 1.97 1.97 1.95 1.94 1.92 1.93 1.94 1.93 1.93 1.93 1.96 1.94 1.92 1.86 1.86 1.89 1.85 1.87 1.88 1.86 1.81 1.79 1.81 1.85 1.79 1.78 1.78 1.80 1.81 1.82 1.78 1.74 1.71 1.65 1.62 1.63 1.48 1.40 1.35 1.30 1.50 1.52 1.67 1.66 1.75 1.55 1.72 1.63 1.70 1.85 1.93 1.88 1.88 1.92 1.89 1.86 1.82 1.78 1.78 1.75 1.73 1.72 1.70 1.71 1.70 1.71 1.71 1.69 1.66 1.65 1.63 1.61 1.56 1.53 1.54 1.55 1.55 1.55
2.10 2.10 2.08 2.05 2.02 2.02 2.00 1.99 1.97 1.98 1.98 1.97 1.96 1.94 1.94 1.94 1.89 1.90 1.94 1.92 1.87 1.84 1.84 1.84 1.85 1.88 1.84 1.83 1.81 1.83 1.84 1.78 1.77 1.79 1.83 1.83 1.85 1.80 1.74 1.73 1.67 1.65 1.64 1.59 1.47 1.38 1.38 1.42 1.57 1.55 1.60 1.68 1.62 1.63 1.67 1.68 1.74 1.84 1.85 1.88 1.91 1.93 1.96 1.96 1.89 1.84 1.78 1.75 1.73 1.72 1.71 1.72 1.73 1.74 1.74 1.72 1.71 1.70 1.68 1.63 1.58 1.54 1.51 1.48 1.46
2.06 2.08 2.06 2.01 1.98 1.97 1.95 1.94 1.95 1.95 1.97 1.97 1.95 1.94 1.94 1.94 1.92 1.90 1.90 1.89 1.88 1.88 1.87 1.86 1.87 1.87 1.85 1.82 1.83 1.84 1.84 1.77 1.77 1.79 1.81 1.82 1.80 1.79 1.75 1.75 1.72 1.69 1.69 1.67 1.62 1.48 1.45 1.38 1.52 1.53 1.63 1.60 1.66 1.73 1.75 1.72 1.66 1.69 1.78 1.88 1.96 1.94 1.96 1.99 2.00 1.94 1.88 1.85 1.79 1.74 1.69 1.67 1.67 1.70 1.71 1.71 1.72 1.72 1.71 1.69 1.66 1.65 1.63 1.58 1.52
2.02 2.00 1.96 1.96 1.93 1.92 1.92 1.94 1.97 1.97 1.97 1.97 1.93 1.94 1.97 1.98 1.96 1.92 1.89 1.89 1.89 1.91 1.94 1.94 1.92 1.89 1.87 1.83 1.84 1.87 1.85 1.76 1.75 1.77 1.80 1.78 1.81 1.82 1.81 1.82 1.79 1.78 1.75 1.72 1.69 1.65 1.54 1.46 1.49 1.63 1.72 1.74 1.80 1.82 1.83 1.70 1.68 1.69 1.73 1.74 1.83 1.89 1.90 1.95 1.99 2.02 1.97 1.93 1.88 1.81 1.75 1.69 1.66 1.66 1.68 1.70 1.70 1.70 1.72 1.73 1.71 1.71 1.72 1.73 1.71
1.98 1.96 1.94 1.96 1.95 1.94 1.98 2.03 2.05 2.04 2.05 2.00 1.96 1.98 1.99 2.01 1.99 1.93 1.91 1.90 1.91 1.94 1.96 1.95 1.94 1.93 1.88 1.87 1.87 1.89 1.85 1.77 1.74 1.79 1.83 1.82 1.85 1.86 1.90 1.92 1.91 1.86 1.80 1.77 1.76 1.71 1.65 1.60 1.60 1.61 1.73 1.72 1.77 1.84 1.91 1.89 1.76 1.65 1.65 1.74 1.83 1.88 1.83 1.81 1.90 2.00 2.04 2.01 1.95 1.90 1.82 1.77 1.73 1.68 1.68 1.69 1.69 1.69 1.69 1.70 1.71 1.72 1.73 1.74 1.75
1.98 1.93 1.94 1.94 1.99 1.99 2.01 2.05 2.05 2.08 2.07 2.02 2.00 2.00 2.02 2.03 1.98 1.95 1.94 1.91 1.94 1.95 1.96 1.95 1.95 1.96 1.97 1.97 1.96 1.95 1.89 1.87 1.85 1.86 1.88 1.88 1.88 1.89 1.94 1.97 1.98 1.91 1.85 1.81 1.79 1.74 1.70 1.66 1.69 1.72 1.71 1.83 1.84 1.76 1.90 2.00 1.95 1.89 1.76 1.72 1.68 1.79 1.82 1.81 1.82 1.95 2.02 2.02 2.04 1.99 1.91 1.85 1.80 1.74 1.71 1.67 1.64 1.64 1.64 1.65 1.65 1.65 1.67 1.69 1.70
1.95 1.94 1.93 1.95 2.00 2.03 2.04 2.03 2.05 2.09 2.08 2.04 2.03 2.03 2.03 2.01 1.99 1.98 1.98 1.98 1.95 1.93 1.93 1.94 1.95 1.97 2.01 2.02 2.01 2.01 1.99 1.99 1.98 1.97 1.96 1.91 1.93 1.89 1.95 1.99 1.99 1.95 1.89 1.86 1.82 1.78 1.74 1.72 1.70 1.69 1.75 1.77 1.89 1.95 2.02 1.97 1.85 1.88 1.94 1.80 1.65 1.72 1.76 1.83 1.86 1.85 1.97 2.00 1.96 1.96 1.97 1.93 1.87 1.83 1.79 1.75 1.72 1.70 1.68 1.66 1.63 1.60 1.58 1.58 1.59
2.02 2.01 2.02 2.03 2.02 2.02 2.03 2.03 2.06 2.13 2.10 2.04 2.05 2.04 2.01 2.00 2.00 1.98 2.00 1.98 1.95 1.92 1.91 1.91 1.93 1.95 1.99 2.02 2.02 2.02 2.05 2.07 2.09 2.07 2.02 2.00 1.96 1.90 1.95 2.01 2.00 1.97 1.92 1.88 1.83 1.78 1.75 1.74 1.73 1.80 1.78 1.77 1.80 1.83 1.75 1.70 1.70 1.75 1.92 1.89 1.76 1.79 1.82 1.79 1.85 1.95 1.97 1.93 1.95 1.92 1.87 1.89 1.87 1.83 1.80 1.74 1.76 1.76 1.74 1.73 1.72 1.72 1.72 1.72 1.71
2.07 2.08 2.07 2.07 2.07 2.04 2.00 2.01 2.09 2.13 2.10 2.11 2.10 2.08 2.07 2.03 2.00 2.00 2.01 1.98 1.96 1.93 1.91 1.91 1.93 1.96 1.98 1.98 2.00 2.01 2.03 2.05 2.06 2.08 2.07 2.07 2.12 2.11 2.08 2.08 2.05 2.00 1.93 1.84 1.77 1.74 1.70 1.64 1.64 1.65 1.63 1.63 1.64 1.65 1.64 1.74 1.80 1.83 1.80 1.78 1.71 1.78 1.79 1.74 1.80 1.85 1.93 1.88 1.80 1.73 1.78 1.88 1.85 1.82 1.80 1.73 1.77 1.78 1.77 1.79 1.80 1.81 1.80 1.80 1.78
2.06 2.09 2.09 2.06 2.05 2.05 2.04 2.06 2.07 2.07 2.08 2.09 2.08 2.07 2.09 2.11 2.10 2.05 2.00 1.99 1.99 1.99 2.00 1.97 1.92 1.96 1.99 1.99 1.98 1.99 2.01 2.01 2.05 2.06 2.07 2.10 2.07 2.06 2.08 2.06 2.05 2.00 1.84 1.77 1.73 1.72 1.65 1.58 1.60 1.61 1.60 1.57 1.60 1.63 1.63 1.61 1.65 1.62 1.57 1.58 1.59 1.63 1.56 1.50 1.43 1.65 1.88 1.81 1.72 1.65 1.67 1.85 1.88 1.79 1.81 1.80 1.82 1.84 1.86 1.86 1.87 1.85 1.83 1.83 1.84
2.08 2.09 2.05 2.02 2.03 2.03 2.04 2.06 2.05 2.03 2.03 2.07 2.09 2.11 2.11 2.12 2.12 2.08 2.05 2.02 2.04 1.98 1.94 1.96 1.95 1.92 1.89 1.89 1.92 1.96 1.98 2.01 2.05 2.04 2.04 2.03 2.00 1.99 1.97 1.97 1.98 1.98 1.93 1.82 1.74 1.69 1.65 1.57 1.54 1.55 1.56 1.54 1.58 1.62 1.63 1.62 1.58 1.59 1.60 1.61 1.58 1.53 1.49 1.46 1.48 1.44 1.73 1.88 1.73 1.66 1.64 1.82 1.86 1.81 1.77 1.82 1.87 1.88 1.89 1.90 1.91 1.90 1.90 1.88 1.88
2.08 2.02 1.98 1.97 1.97 2.01 2.03 2.00 1.99 2.03 2.04 2.07 2.09 2.09 2.06 2.02 2.00 1.97 1.92 1.90 1.83 1.76 1.75 1.72 1.72 1.71 1.72 1.75 1.80 1.86 1.86 1.88 1.91 1.93 1.92 1.90 1.91 1.91 1.90 1.92 1.93 1.94 1.90 1.94 1.95 1.81 1.75 1.65 1.55 1.53 1.55 1.56 1.52 1.57 1.66 1.64 1.67 1.55 1.58 1.55 1.54 1.53 1.52 1.48 1.48 1.52 1.67 1.85 1.74 1.62 1.54 1.70 1.80 1.75 1.70 1.76 1.80 1.84 1.87 1.89 1.90 1.91 1.93 1.95 1.94
2.01 1.99 1.98 1.97 2.03 2.06 2.06 2.05 2.04 2.06 2.06 2.06 2.02 1.95 1.88 1.85 1.84 1.82 1.78 1.72 1.69 1.64 1.60 1.57 1.53 1.49 1.46 1.44 1.43 1.46 1.57 1.66 1.74 1.77 1.78 1.80 1.84 1.88 1.90 1.87 1.81 1.80 1.83 1.83 1.79 1.76 1.78 1.74 1.69 1.60 1.70 1.73 1.62 1.72 1.83 1.83 1.69 1.59 1.59 1.55 1.59 1.57 1.56 1.50 1.58 1.65 1.79 1.86 1.66 1.61 1.54 1.64 1.76 1.72 1.66 1.73 1.81 1.80 1.82 1.84 1.86 1.86 1.86 1.87 1.90
1.95 1.96 1.97 2.01 2.02 2.01 2.02 2.03 2.01 1.99 1.98 1.95 1.88 1.83 1.78 1.74 1.72 1.70 1.65 1.61 1.56 1.51 1.47 1.44 1.42 1.40 1.38 1.38 1.38 1.36 1.37 1.41 1.46 1.51 1.53 1.59 1.64 1.69 1.78 1.73 1.73 1.74 1.74 1.75 1.78 1.82 1.77 1.79 1.81 1.77 1.76 1.79 1.77 1.79 1.85 1.90 1.79 1.79 1.76 1.69 1.69 1.64 1.61 1.62 1.63 1.69 1.71 1.82 1.77 1.65 1.37 1.54 1.68 1.61 1.62 1.68 1.74 1.72 1.72 1.72 1.72 1.73 1.77 1.82 1.86
1.85 1.86 1.85 1.85 1.84 1.83 1.86 1.85 1.82 1.77 1.76 1.73 1.66 1.60 1.53 1.48 1.45 1.41 1.38 1.34 1.30 1.29 1.29 1.30 1.32 1.33 1.36 1.37 1.37 1.33 1.29 1.29 1.33 1.36 1.41 1.46 1.47 1.49 1.53 1.56 1.58 1.60 1.60 1.65 1.66 1.68 1.66 1.67 1.67 1.67 1.66 1.70 1.74 1.75 1.76 1.74 1.69 1.73 1.76 1.76 1.74 1.64 1.50 1.37 1.33 1.47 1.49 1.69 1.76 1.63 1.48 1.47 1.63 1.57 1.57 1.64 1.65 1.61 1.65 1.68 1.70 1.71 1.73 1.78 1.82
1.47 1.45 1.45 1.48 1.53 1.54 1.52 1.50 1.47 1.44 1.43 1.42 1.39 1.35 1.30 1.27 1.22 1.16 1.12 1.09 1.10 1.13 1.16 1.20 1.23 1.28 1.30 1.35 1.39 1.36 1.30 1.25 1.27 1.26 1.29 1.31 1.27 1.28 1.32 1.35 1.39 1.38 1.37 1.46 1.50 1.50 1.51 1.52 1.55 1.53 1.52 1.52 1.53 1.55 1.55 1.53 1.52 1.58 1.54 1.41 1.38 1.50 1.40 1.28 1.29 1.30 1.32 1.55 1.68 1.71 1.59 1.43 1.53 1.57 1.53 1.56 1.57 1.55 1.58 1.63 1.69 1.72 1.75 1.76 1.78
1.25 1.25 1.26 1.28 1.34 1.35 1.34 1.33 1.35 1.32 1.30 1.32 1.27 1.23 1.19 1.16 1.14 1.07 1.02 0.96 0.93 0.92 0.93 1.02 1.14 1.22 1.26 1.30 1.31 1.30 1.27 1.24 1.22 1.20 1.20 1.19 1.12 1.10 1.10 1.10 1.11 1.12 1.16 1.25 1.27 1.31 1.33 1.34 1.36 1.36 1.35 1.36 1.36 1.37 1.37 1.38 1.44 1.51 1.39 1.21 1.34 1.36 1.22 1.22 1.17 1.29 1.43 1.55 1.62 1.74 1.51 1.38 1.47 1.50 1.44 1.47 1.50 1.54 1.60 1.67 1.68 1.69 1.71 1.73 1.74
1.18 1.18 1.18 1.17 1.20 1.22 1.23 1.23 1.25 1.20 1.18 1.18 1.18 1.14 1.11 1.08 1.05 1.01 0.97 0.92 0.86 0.85 0.86 0.90 1.02 1.08 1.11 1.18 1.23 1.25 1.25 1.24 1.22 1.20 1.19 1.17 1.09 1.04 1.01 0.96 0.92 0.92 1.00 1.08 1.04 1.01 1.03 1.07 1.15 1.21 1.19 1.22 1.26 1.30 1.35 1.37 1.41 1.46 1.45 1.40 1.43 1.35 1.25 1.29 1.33 1.34 1.27 1.35 1.57 1.72 1.40 1.33 1.33 1.38 1.43 1.37 1.34 1.50 1.63 1.66 1.64 1.64 1.64 1.66 1.68
Wind_Speed
9 8 7 7 6 6 5 5 4 3 3 2 1 0 1 2 3 4 4 5 6 7 8 8 9 8 8 9 10 11 10 9 8 8 6 4 4 5 6 7 8 9 10 12 12 13 13 14 14 15 16 16 16 17 17 17 17 17 17 17 18 18 18 18 18 17 17 17 16 16 16 16 16 15 15 15 15 14 14 13 13 13 13 12 12
9 8 7 7 6 6 5 4 3 3 2 2 1 1 2 3 4 4 5 5 6 7 8 8 9 9 9 10 10 11 11 9 8 8 6 4 3 4 5 6 7 8 9 11 12 13 13 14 14 15 15 16 16 17 17 17 18 18 17 17 18 18 18 18 18 18 18 18 17 17 17 16 16 16 16 15 15 15 15 14 14 14 14 13 13
9 8 7 7 6 5 5 4 3 3 2 2 1 1 2 3 4 4 5 5 6 6 8 8 9 9 10 10 10 10 11 10 9 8 7 5 3 3 4 5 6 7 9 10 11 12 12 13 14 14 15 15 16 16 16 17 18 18 18 18 18 18 18 18 18 18 18 18 18 18 18 17 17 17 16 16 16 16 16 15 15 15 15 14 14
9 8 7 6 6 5 4 4 3 3 3 2 2 2 2 3 4 4 4 5 6 6 7 8 8 9 10 10 9 9 10 10 9 8 7 6 3 2 2 2 4 6 8 10 10 11 12 12 13 14 14 15 15 16 16 16 17 18 18 18 18 18 18 18 18 18 18 19 19 19 18 18 18 18 17 17 17 17 16 16 16 16 16 15 15
9 8 7 6 6 5 4 4 4 4 3 3 2 2 2 3 3 4 4 5 6 6 7 7 8 9 9 10 10 9 9 9 9 9 8 6 4 3 1 1 2 4 6 8 9 10 11 12 12 13 14 14 15 15 15 16 16 17 18 18 18 18 18 17 18 18 18 18 18 18 18 18 18 18 18 18 18 17 17 17 17 17 16 16 16
9 8 7 6 6 5 5 4 4 4 4 3 2 2 2 3 3 3 4 4 5 6 7 8 8 9 9 10 10 9 9 9 9 9 8 7 5 3 2 0 1 3 4 6 7 8 10 11 11 12 13 13 14 15 15 15 16 16 17 18 18 18 18 18 18 18 18 18 18 18 18 18 18 18 17 17 17 17 17 17 17 17 16 16 16
9 8 7 7 6 5 5 5 5 4 4 3 2 2 2 2 3 3 4 4 5 6 7 8 8 9 9 9 10 9 10 10 10 10 10 8 6 4 2 1 1 3 4 5 6 7 8 10 10 11 12 12 13 14 14 14 15 15 16 17 17 18 18 18 18 18 18 18 18 18 18 17 17 17 17 17 17 16 16 16 16 16 16 16 16
10 9 8 7 7 6 5 5 5 4 3 3 3 2 2 2 3 3 3 4 5 5 7 8 8 8 8 9 9 9 10 11 11 12 11 10 8 5 3 2 2 3 4 4 5 6 7 8 9 10 10 11 12 13 13 14 14 15 15 16 17 17 18 18 18 18 18 18 18 18 18 17 17 17 17 17 17 16 16 16 16 16 16 16 16
10 10 8 8 8 6 5 5 4 4 3 3 2 2 3 3 3 3 3 4 4 5 6 7 8 8 8 8 9 9 10 10 11 12 11 10 9 7 5 4 3 3 3 4 4 5 6 7 8 9 9 11 11 12 13 13 14 15 15 15 16 16 17 18 18 18 18 18 18 18 18 18 18 17 17 17 17 17 16 16 16 16 15 15 15
11 10 9 9 8 6 5 5 5 4 3 3 3 3 3 2 3 3 3 4 4 5 6 6 7 7 7 7 8 8 9 10 11 11 11 10 9 8 6 5 4 3 3 3 3 4 5 6 7 8 9 10 11 11 12 13 13 14 14 15 15 16 17 17 18 18 18 18 18 18 18 18 18 18 17 17 17 17 17 17 16 16 15 15 15
11 10 9 9 8 6 5 5 5 5 4 4 3 3 2 2 3 3 4 4 4 4 5 6 6 7 7 7 7 7 8 9 9 10 11 10 9 8 7 6 5 4 3 2 2 3 4 5 5 6 7 8 9 10 11 11 12 13 13 14 15 15 16 17 17 18 18 18 18 18 18 18 18 18 18 17 17 17 17 17 16 16 16 15 14
11 10 10 10 9 8 7 6 6 6 5 4 4 3 3 3 3 4 4 4 4 4 5 5 6 6 6 7 7 7 7 8 8 9 10 10 9 9 8 7 6 4 3 3 3 3 3 4 4 5 6 7 8 9 9 10 11 12 12 13 14 14 15 16 16 17 17 18 18 19 19 19 19 18 18 18 17 17 17 17 17 16 16 15 15
12 11 11 11 10 9 8 7 7 7 6 6 5 4 4 4 4 4 4 4 4 4 4 4 5 6 6 7 7 6 7 7 8 9 9 9 9 9 8 7 6 5 4 3 3 3 3 4 4 5 5 6 7 7 8 9 10 11 11 12 13 13 14 15 15 16 16 17 18 18 18 19 19 19 18 18 17 17 17 17 17 16 16 15 15
12 12 12 12 11 10 10 9 8 8 7 6 6 6 6 6 5 5 4 4 4 4 3 4 4 5 5 6 7 6 6 7 7 8 8 9 9 9 9 8 7 6 5 5 4 3 3 4 4 4 5 5 6 6 6 7 8 9 10 11 11 12 13 14 15 15 16 16 17 17 18 18 18 18 18 18 17 17 17 17 16 16 16 16 15
11 11 12 12 12 12 11 11 10 9 8 8 7 7 7 6 5 5 4 4 4 4 3 3 3 4 5 5 6 6 6 7 7 7 7 8 8 9 9 9 8 7 6 6 5 4 4 4 4 4 4 5 5 5 5 6 7 8 9 9 10 11 12 13 14 14 15 15 16 16 17 17 17 18 18 17 17 17 17 16 16 16 16 16 15
10 11 11 12 12 12 12 11 10 10 9 8 8 8 7 6 6 5 4 4 4 4 3 3 3 3 4 5 5 5 5 6 7 7 7 7 7 8 8 8 8 7 6 6 5 4 4 3 3 4 4 4 4 4 4 5 5 6 7 8 8 9 10 11 12 13 14 14 15 15 16 16 16 17 17 17 17 17 16 16 16 16 16 16 15
11 10 11 11 12 12 12 11 11 10 9 8 8 7 7 6 6 5 5 5 5 4 4 3 2 2 3 4 4 4 4 5 6 6 6 6 7 7 7 7 7 7 6 6 5 4 4 3 3 3 4 4 4 4 4 4 4 5 6 6 7 8 9 10 11 12 13 14 14 15 15 15 16 16 16 16 16 16 16 16 16 16 16 16 16
11 10 11 11 11 12 12 11 11 10 9 9 8 7 7 7 6 6 5 5 5 5 4 4 3 3 3 3 3 3 3 4 5 5 6 6 6 6 6 6 6 6 6 5 5 4 4 4 3 3 4 4 4 3 3 3 4 4 5 5 6 7 8 9 10 11 12 12 13 14 14 15 15 15 15 15 16 16 16 16 16 16 16 16 16
11 10 10 11 11 11 11 11 10 10 9 9 8 8 7 7 6 6 6 5 5 5 4 4 3 3 3 3 3 3 3 3 4 4 5 5 5 6 6 5 6 6 6 5 5 4 4 4 3 3 3 3 3 3 2 2 3 3 4 4 5 6 6 7 8 10 11 12 12 13 13 14 14 14 14 15 15 15 15 16 16 16 15 16 16
10 10 10 10 10 10 11 11 10 10 10 9 9 8 8 7 7 7 7 6 6 5 5 5 4 4 4 3 3 3 2 2 3 3 3 4 5 5 5 5 5 5 5 5 5 4 4 3 3 3 3 2 2 2 2 2 2 2 3 3 4 5 5 6 7 9 10 11 11 12 12 13 13 13 13 14 14 14 15 15 15 15 15 16 16
11 10 10 10 10 10 11 11 10 10 10 10 10 9 9 8 8 8 7 7 7 6 6 6 6 5 5 4 3 2 2 2 2 3 3 3 4 4 4 4 4 4 4 4 4 4 4 3 3 3 2 2 2 2 2 1 1 1 1 2 3 4 5 5 6 8 9 10 11 11 12 12 12 12 13 13 14 14 14 15 15 15 15 15 15
11 11 10 10 10 11 11 11 11 10 10 10 10 10 10 9 9 8 8 8 8 7 7 7 6 6 5 5 4 3 3 3 2 2 2 2 3 3 3 3 3 3 4 3 3 3 3 3 3 2 2 2 1 1 1 1 1 1 1 1 1 2 3 4 5 6 7 9 9 10 11 11 11 11 12 12 13 13 13 14 14 14 14 15 15
11 11 11 11 11 11 11 11 12 11 11 11 11 11 11 10 9 9 9 9 9 8 8 8 7 7 6 6 5 4 4 4 4 3 2 2 2 2 2 2 2 2 3 3 2 2 2 2 2 2 1 1 1 1 1 1 1 1 1 1 1 2 2 3 3 4 6 7 8 9 10 10 10 10 11 11 11 12 12 13 13 13 14 14 14
12 11 11 11 11 12 12 12 12 12 12 11 11 11 11 11 10 10 10 10 9 9 9 8 8 8 7 7 6 6 5 5 5 4 3 3 2 2 2 1 1 2 2 2 2 2 1 1 1 1 0 1 1 1 1 1 1 1 1 1 2 2 2 2 2 3 4 6 7 7 8 9 9 9 10 10 10 11 11 12 12 12 13 13 13
12 12 12 12 12 12 12 12 12 12 12 12 11 11 11 11 11 11 10 10 10 10 10 9 8 8 8 8 7 7 6 5 5 4 4 3 3 2 1 1 1 1 2 2 2 2 1 1 1 0 1 1 1 1 1 1 1 1 1 2 2 2 2 1 2 3 4 5 6 6 7 8 8 9 9 9 9 10 10 11 11 11 12 12 12
12 12 12 12 12 12 12 12 12 12 12 12 12 11 11 12 11 11 11 11 11 11 10 10 9 9 8 8 8 8 7 6 6 5 5 4 4 3 2 1 2 2 2 2 2 2 2 2 2 1 1 2 2 2 2 2 2 1 2 2 2 2 2 1 1 2 3 4 5 6 7 7 8 8 8 8 9 9 9 10 10 11 11 11 11
13 13 13 13 13 13 13 13 12 12 12 12 12 12 12 12 12 11 11 11 11 11 11 10 10 10 9 9 9 9 8 8 7 6 6 6 5 5 4 3 3 3 2 2 3 3 3 3 3 2 2 2 3 3 3 3 3 2 2 2 2 2 2 2 1 2 2 3 5 6 6 7 8 8 8 9 9 9 9 10 10 10 10 11 11
14 13 13 13 13 13 13 13 13 12 12 12 12 12 12 12 12 12 12 12 12 12 11 11 11 11 11 10 10 10 9 9 8 8 7 7 7 6 6 5 4 4 3 3 3 4 4 4 3 3 3 3 3 4 4 3 3 3 3 3 3 3 3 2 2 2 2 3 4 5 6 7 7 8 8 9 9 9 9 10 10 10 11 11 11
14 14 14 13 14 14 14 13 13 13 13 13 12 12 12 12 12 12 12 12 12 12 12 12 12 12 12 11 11 10 10 9 9 8 8 8 8 8 8 7 6 5 4 4 4 4 4 4 4 4 4 4 4 4 4 4 4 4 4 4 4 4 4 4 3 3 3 3 4 5 6 6 7 7 8 8 9 9 9 10 10 10 11 11 11
14 14 14 14 14 14 14 14 14 13 13 13 13 13 13 13 12 12 12 12 12 12 12 12 12 12 12 12 12 11 11 10 10 9 9 8 9 9 9 9 8 7 6 6 6 6 5 5 5 5 5 5 5 5 5 5 5 5 5 5 4 4 5 5 5 5 4 4 4 5 6 7 7 8 8 8 9 9 9 10 10 10 11 11 11
15 15 15 15 14 14 15 14 14 14 14 13 13 13 13 13 13 12 12 12 12 12 12 12 12 12 12 12 12 12 12 12 11 11 10 10 10 10 9 10 10 10 9 8 7 7 7 7 6 6 6 6 6 6 6 7 7 7 6 6 6 5 5 5 6 6 6 6 5 6 6 7 7 8 8 9 9 10 10 10 11 11 11 11 12
16 16 16 16 16 15 15 15 15 15 15 14 14 14 14 13 13 13 13 12 12 12 12 12 12 12 12 12 13 13 13 13 13 12 11 11 11 10 10 10 10 11 11 10 9 9 9 8 8 8 7 7 7 7 7 8 8 8 8 7 7 7 6 6 6 7 7 7 7 7 7 7 8 8 9 9 10 10 11 11 11 11 12 12 12
16 16 16 17 17 16 16 16 16 15 15 15 15 14 14 14 13 13 13 13 13 13 13 13 13 12 13 13 13 13 13 13 13 13 13 12 12 11 11 10 10 11 12 12 11 10 10 10 9 9 8 8 8 8 8 9 9 9 10 9 9 9 8 8 8 8 8 8 8 8 8 9 9 9 9 10 10 11 11 11 12 12 13 13 13
17 17 17 17 17 17 17 17 17 16 16 16 16 15 15 14 14 13 14 14 13 13 13 13 13 13 13 13 13 13 13 14 14 14 13 13 13 12 12 11 11 10 11 13 13 12 12 11 11 10 10 10 10 10 10 10 10 10 11 11 11 11 10 10 9 9 9 9 9 9 9 9 10 10 10 11 11 12 12 12 12 13 13 14 15
17 17 17 17 17 17 17 17 17 16 16 16 16 16 16 15 15 14 14 14 14 14 13 13 13 13 13 13 13 13 14 14 14 14 14 14 13 13 13 12 12 11 11 11 12 13 13 12 12 11 11 11 11 11 11 11 11 11 12 12 12 12 12 12 11 11 11 11 11 11 11 11 11 12 12 12 12 13 13 13 13 14 14 14 15
18 17 17 17 16 16 17 17 17 17 17 17 16 16 16 16 15 15 14 14 14 13 13 13 13 13 13 14 14 13 14 14 15 14 14 14 14 14 14 13 13 13 12 11 12 12 13 13 12 12 12 12 12 12 12 12 12 12 12 13 13 13 13 13 13 13 13 12 12 12 12 13 13 13 13 13 13 14 14 14 15 15 15 15 15
17 17 17 17 17 17 17 17 17 17 17 17 17 17 16 16 15 14 14 14 13 13 13 13 13 13 13 14 14 13 14 14 14 14 15 15 15 14 14 14 14 14 13 13 12 12 12 13 13 13 13 13 13 13 13 13 13 13 13 13 14 14 14 15 15 15 15 14 14 14 14 14 14 15 15 15 15 15 15 15 16 16 16 17 17
17 17 17 17 17 17 17 17 17 17 17 17 17 17 16 15 15 14 13 13 13 13 13 13 13 13 13 13 13 13 14 14 14 14 15 15 15 15 15 14 14 14 14 14 14 13 13 13 14 14 14 14 14 13 13 13 13 13 14 14 15 15 15 15 16 16 16 16 16 15 15 15 16 16 16 16 16 17 17 17 17 17 18 18 19
17 17 17 17 17 17 17 17 17 17 17 17 17 16 15 15 15 14 13 13 13 13 13 13 13 13 13 13 13 14 14 14 14 14 15 15 15 15 15 15 15 15 15 15 15 14 14 14 14 15 15 15 15 15 14 14 14 15 15 15 16 16 16 16 16 17 17 17 17 17 17 17 17 17 17 18 18 18 18 18 19 19 19 19 20
18 17 17 17 16 16 16 16 16 17 17 17 16 16 15 15 14 14 13 13 13 13 13 13 13 13 13 13 13 13 13 14 14 14 15 15 15 15 16 15 15 15 15 16 15 15 15 15 15 16 16 15 15 15 14 14 15 16 16 16 17 17 17 17 17 17 18 19 19 19 19 19 19 19 19 19 19 19 19 20 20 20 20 20 20
17 17 17 16 16 16 15 15 15 16 16 16 16 16 15 15 14 14 14 13 14 13 13 13 13 13 13 13 13 13 13 14 14 15 15 15 15 15 15 15 15 16 16 16 16 16 16 16 16 16 16 16 15 15 15 16 17 17 17 18 18 18 18 19 19 19 19 19 20 20 20 21 21 21 21 21 21 21 21 21 21 21 21 21 21
15 15 15 16 16 15 15 15 15 15 15 15 15 15 15 14 14 13 13 14 14 13 13 13 13 13 13 13 13 13 13 14 14 14 14 14 15 15 15 15 16 16 16 16 16 16 16 16 16 16 16 16 16 16 16 17 17 18 18 19 19 19 19 20 20 20 20 21 21 21 22 22 22 22 22 22 23 23 22 22 22 22 22 22 22
14 14 14 14 14 14 13 14 14 14 14 14 14 13 13 13 13 13 13 13 13 13 12 12 13 13 13 13 13 13 13 13 13 13 14 14 14 15 15 16 16 16 16 16 16 16 16 17 17 17 17 17 17 17 17 17 18 18 19 19 19 19 19 20 20 20 21 21 22 22 22 22 22 23 22 22 23 23 23 23 23 23 23 23 23
13 13 13 13 13 12 12 13 13 13 13 12 12 12 12 12 12 12 12 12 12 12 12 12 12 13 13 13 13 13 13 13 13 13 13 13 14 14 15 15 15 15 16 16 16 16 17 17 17 17 17 17 17 17 17 17 18 18 19 19 19 19 19 20 20 21 21 21 22 23 23 23 23 23 23 23 23 24 24 24 24 24 24 24 24
12 12 12 12 12 12 12 12 12 12 12 11 11 11 11 11 11 11 11 12 12 12 12 12 12 12 12 12 12 12 12 13 13 12 13 13 13 13 14 14 15 15 15 16 16 16 17 17 17 18 17 17 17 18 18 18 18 18 19 19 19 20 19 20 21 21 21 21 22 22 23 23 23 23 23 23 23 23 24 24 24 24 25 25 25
12 12 12 12 12 12 12 12 12 11 11 11 11 10 10 10 10 10 11 11 12 12 12 12 12 12 12 12 12 12 12 12 12 13 13 13 13 14 14 14 15 15 15 16 16 16 16 17 17 17 17 17 18 18 18 18 18 18 19 19 20 20 20 21 21 21 21 21 21 22 23 23 23 23 23 23 23 23 23 24 24 25 25 25 25
12 12 11 11 11 11 11 11 11 11 11 11 10 10 10 10 9 10 10 11 11 11 12 12 12 12 13 13 12 12 12 12 12 13 13 13 13 14 14 14 15 15 15 15 15 16 16 16 16 17 17 17 18 18 18 18 18 19 19 19 20 20 20 21 21 22 21 22 22 22 22 22 23 23 24 24 24 24 24 24 24 25 25 26 26
11 11 11 11 11 11 11 11 11 11 10 10 10 10 10 9 9 10 10 11 11 12 12 12 12 12 13 13 13 12 12 12 13 13 13 13 13 14 14 14 14 14 15 15 15 15 16 16 16 17 17 17 18 18 18 18 18 19 19 19 19 19 20 20 21 21 21 22 22 22 22 22 22 23 23 23 24 24 24 24 24 25 25 25 26
11 11 10 10 10 11 11 10 10 11 11 10 10 10 10 10 10 10 11 11 12 12 13 13 12 12 12 12 13 13 13 13 13 14 14 14 14 14 14 15 15 15 16 16 16 16 17 17 18 18 18 18 18 18 18 18 18 19 19 19 19 19 19 20 20 21 21 21 21 22 22 22 22 23 23 23 23 24 24 24 24 24 24 25 25
11 10 10 10 10 10 10 10 10 11 11 11 10 10 10 10 11 11 11 12 12 13 13 13 13 13 12 12 12 13 13 14 14 14 15 15 15 15 16 16 17 17 17 18 18 18 18 18 18 17 17 17 18 18 18 18 18 18 18 19 19 18 19 19 20 19 20 20 20 21 22 22 22 22 23 23 23 23 23 23 23 23 24 23 23
10 10 10 10 10 10 10 10 11 11 11 11 11 10 10 10 11 11 11 11 12 12 12 12 13 13 13 13 12 13 13 14 14 14 15 15 15 16 16 17 17 18 18 18 18 18 18 18 17 17 17 17 17 17 17 17 17 17 17 17 17 17 18 18 18 18 18 19 19 20 21 21 21 22 22 23 22 23 23 23 23 23 23 22 21
Wind_Direction
173 172 171 167 165 165 165 168 169 171 177 183 198 318 346 346 349 356 359 357 358 357 355 355 357 2 4 358 356 360 0 357 354 348 336 318 284 250 239 233 227 222 217 212 209 209 210 211 212 213 214 215 216 216 216 216 215 216 217 217 217 217 217 218 218 219 219 220 221 221 222 222 223 224 225 226 228 229 231 233 236 239 242 245 248
175 175 174 170 168 169 172 176 177 178 186 203 228 299 337 349 352 358 357 353 355 356 356 359 2 2 0 359 360 0 360 359 359 359 353 337 306 263 242 232 226 220 215 212 209 209 211 211 211 212 214 215 217 218 218 218 217 218 218 219 219 219 219 220 221 221 222 223 223 224 225 225 226 227 229 229 231 233 234 236 238 241 244 247 250
178 179 178 174 172 172 178 185 192 197 211 230 245 295 328 345 350 356 355 352 352 353 356 0 3 1 358 359 1 0 360 0 360 1 3 356 333 293 251 228 224 221 218 214 209 209 210 210 211 212 214 216 217 218 219 219 219 219 220 220 220 221 221 222 223 223 224 225 226 227 227 228 229 231 232 233 234 236 238 239 241 244 246 248 251
181 182 181 180 178 179 187 197 207 214 225 237 251 297 317 334 343 350 354 355 355 353 355 360 3 1 358 359 0 1 1 0 1 3 4 2 357 337 287 233 222 221 221 217 209 207 208 209 210 212 215 216 217 218 219 220 220 220 220 221 221 221 222 222 223 224 225 226 228 228 229 231 232 234 235 237 238 239 241 243 244 246 247 250 253
184 187 187 185 186 191 201 209 218 225 233 238 246 282 309 329 340 347 351 357 357 355 357 1 2 0 0 0 359 1 3 4 8 8 6 9 12 9 348 255 221 213 214 212 204 202 205 207 210 212 214 215 216 217 219 220 220 219 220 221 222 222 223 223 223 224 225 226 228 229 230 232 233 235 236 238 240 241 243 244 245 247 248 251 254
188 191 194 194 197 208 218 226 232 233 235 236 238 264 301 329 340 345 348 353 355 357 1 1 0 0 1 0 360 2 5 10 18 16 14 18 19 20 25 4 207 201 200 199 196 197 202 207 210 213 215 216 216 217 219 220 220 219 219 220 222 223 223 224 225 225 225 226 227 229 230 231 233 234 236 237 239 241 243 244 245 247 248 251 253
192 196 201 204 208 219 231 235 234 229 226 226 236 262 291 323 337 344 347 350 354 357 1 1 1 2 3 4 7 10 11 15 23 25 26 28 27 30 34 46 166 183 187 187 189 195 201 206 210 213 215 217 218 219 219 220 220 219 219 220 221 223 224 225 226 226 227 227 228 229 231 232 233 235 236 237 239 240 242 243 245 246 248 250 252
195 199 204 208 211 222 234 233 226 223 221 225 243 267 286 304 321 336 344 347 350 353 358 1 3 6 9 13 16 18 19 22 26 29 31 34 35 38 43 58 118 157 172 177 183 190 199 204 209 212 214 217 218 218 219 219 219 219 219 220 222 224 225 225 226 227 228 229 229 231 232 233 234 235 236 238 239 240 241 243 244 245 246 248 250
199 203 205 208 214 220 229 226 220 222 222 228 244 264 282 294 309 327 340 343 343 346 353 359 3 8 12 17 21 22 23 26 29 31 32 35 38 43 51 66 90 122 150 166 176 185 195 202 207 211 214 217 217 216 217 218 219 220 220 221 223 225 226 226 227 227 228 229 230 232 233 233 234 235 236 237 238 239 240 241 243 244 245 247 247
204 207 208 210 215 218 223 223 220 223 226 235 249 265 286 296 307 322 334 337 338 343 350 354 0 7 11 15 21 24 24 27 30 32 33 34 38 43 51 62 72 89 118 146 168 182 193 200 205 209 211 215 216 215 215 216 218 220 222 223 225 226 227 228 228 228 229 230 231 232 233 234 234 235 235 236 237 238 239 240 241 243 244 245 246
209 211 211 211 215 218 222 223 221 223 232 243 253 268 289 301 310 320 326 327 330 342 349 353 359 5 10 13 19 24 24 27 30 32 33 35 37 41 47 55 59 68 91 116 147 168 183 193 198 202 206 210 212 213 213 215 217 219 222 224 226 228 229 229 229 230 230 230 231 232 233 234 234 235 235 236 237 238 239 239 240 242 243 244 245
212 214 215 214 215 219 222 225 225 227 235 245 252 262 276 290 305 313 316 318 323 335 347 355 358 1 7 11 16 22 23 27 31 31 33 36 38 42 46 51 52 58 78 95 119 145 162 177 184 190 196 202 206 209 211 213 216 217 221 225 228 229 229 230 230 230 230 231 232 233 233 234 234 234 235 236 237 239 239 239 240 240 241 243 244
215 217 218 217 217 221 225 228 230 232 237 244 249 258 271 285 299 305 306 309 316 327 342 354 358 359 5 10 12 19 24 26 30 32 34 38 42 45 47 49 50 56 73 87 102 127 147 160 170 176 181 189 197 204 208 212 216 218 221 225 228 230 230 230 230 230 230 231 232 233 233 233 234 234 235 236 238 239 240 240 240 240 241 242 244
216 219 220 219 220 223 228 230 234 236 240 246 252 260 272 282 292 298 301 306 309 316 331 346 358 2 8 12 13 19 24 28 31 32 36 40 44 47 48 50 52 58 73 83 89 103 129 146 155 164 171 178 188 196 205 213 217 219 222 225 228 229 230 230 230 230 230 231 232 232 233 233 234 234 235 236 237 239 240 240 240 240 241 242 244
218 221 222 223 224 226 229 233 237 240 245 251 258 263 270 277 282 285 290 299 299 302 314 329 348 2 11 14 17 21 23 29 32 31 36 43 46 48 48 49 52 59 71 79 81 90 109 129 140 153 165 172 180 188 197 208 215 219 222 225 227 229 229 228 229 230 231 232 232 232 232 232 233 234 234 235 236 238 239 239 239 240 241 242 243
221 223 224 225 227 229 231 233 238 242 246 251 257 261 265 269 271 271 278 288 290 294 301 305 320 352 9 13 22 29 26 28 27 26 34 42 45 47 47 48 52 58 67 71 75 86 99 114 130 146 160 167 174 181 190 202 210 215 221 226 229 230 230 230 230 231 231 231 231 231 231 231 232 232 233 234 235 236 237 238 239 240 241 242 243
223 226 226 227 228 229 231 233 237 241 245 249 253 257 260 261 263 266 274 281 281 283 284 284 292 321 353 5 20 31 26 23 24 26 31 36 40 43 45 48 50 55 61 64 72 83 91 104 120 137 153 160 166 174 186 199 207 213 219 226 231 233 233 232 232 231 230 230 230 229 230 230 231 231 232 233 234 235 237 238 239 240 241 242 243
224 227 227 228 229 230 231 232 235 238 243 247 249 252 255 257 260 265 271 275 275 271 269 271 281 291 307 332 353 7 12 18 26 27 24 29 39 39 41 48 50 55 60 62 68 78 88 99 109 124 139 150 158 168 181 198 208 215 222 228 231 234 235 233 231 230 229 229 228 228 228 229 230 230 231 232 234 235 237 238 239 240 241 241 242
226 228 228 228 230 230 231 232 234 237 240 244 246 249 253 257 260 263 266 268 269 265 262 266 273 280 285 300 316 326 349 11 21 24 22 25 32 35 39 48 52 54 57 59 64 74 86 98 105 114 127 140 152 161 173 188 203 216 226 231 233 236 237 236 234 231 229 227 227 227 227 228 229 230 231 233 235 236 236 238 239 240 240 240 242
226 229 228 228 229 230 232 232 234 237 239 241 244 248 251 254 257 260 262 262 263 262 261 263 267 277 283 287 298 303 319 349 5 19 29 22 18 28 36 40 48 53 55 58 63 72 83 95 105 112 120 133 145 152 161 174 190 211 224 231 234 237 240 241 239 235 231 228 226 226 227 227 229 230 232 234 236 237 237 238 239 240 241 241 242
226 229 230 230 231 232 233 234 235 238 242 242 243 247 249 251 253 256 258 259 260 259 257 260 265 272 276 274 278 283 294 319 343 3 23 19 10 21 28 29 42 51 55 58 60 69 78 86 100 111 119 127 138 147 159 170 185 212 228 241 245 245 247 246 242 238 234 230 227 226 226 227 228 230 233 235 236 238 238 238 240 241 242 242 242
227 230 231 233 234 235 236 237 238 241 245 245 243 245 248 250 250 252 254 255 256 255 255 259 263 266 265 261 262 263 273 289 306 329 350 4 1 4 12 20 33 39 45 50 53 64 72 78 88 102 118 129 134 147 169 178 182 217 246 278 282 269 263 254 243 237 233 229 227 226 225 226 228 230 233 235 236 237 237 238 239 240 241 242 243
228 231 233 234 235 237 239 239 240 243 246 246 245 244 246 248 248 249 251 253 254 256 258 259 260 262 259 253 252 255 260 270 276 286 300 319 337 344 355 10 15 20 32 36 35 49 65 75 85 93 118 142 148 153 177 188 199 229 257 309 325 308 287 263 242 235 230 226 224 223 224 225 227 230 233 234 235 236 237 238 239 240 241 242 244
228 233 235 236 237 239 240 240 242 244 246 247 247 245 244 246 247 248 251 253 254 256 259 260 258 258 256 249 248 252 259 266 271 272 272 275 292 315 336 3 4 1 16 20 11 9 29 61 77 92 140 191 201 196 200 218 237 249 260 295 320 317 301 267 241 231 225 221 219 219 221 223 227 230 232 233 235 236 237 239 240 241 242 242 244
230 235 238 239 239 240 240 241 243 246 247 248 248 246 244 245 247 249 250 251 253 255 257 259 258 256 254 249 246 247 252 258 264 266 265 265 273 293 306 317 323 330 347 357 351 339 329 323 319 297 266 252 250 242 227 239 254 262 277 296 309 311 304 280 252 235 226 221 218 216 218 221 225 228 230 232 234 235 237 238 239 241 242 243 244
234 237 240 241 241 241 240 241 243 245 246 248 248 247 246 247 248 250 250 251 252 254 256 257 256 253 252 250 247 245 246 249 254 257 256 254 257 269 278 279 281 292 311 318 314 312 305 301 293 278 278 272 262 256 245 247 257 269 296 308 311 312 311 307 275 246 234 227 223 221 221 223 226 227 230 232 235 237 239 240 241 242 243 244 244
239 240 240 241 241 241 240 240 242 244 245 246 247 246 246 246 248 249 250 251 252 253 254 255 254 252 249 250 249 247 247 247 248 250 249 248 252 259 260 262 274 280 289 298 295 290 287 292 290 275 272 278 273 263 252 249 255 264 283 295 302 307 305 306 294 263 243 235 231 228 227 228 231 232 234 236 238 241 243 244 244 244 244 244 244
240 241 241 242 242 242 241 240 241 243 244 245 246 245 245 246 247 249 250 251 251 252 254 255 254 252 249 249 249 249 249 247 246 247 246 247 251 256 254 251 259 272 283 292 292 289 286 286 287 278 269 272 275 269 258 253 253 257 267 275 284 292 289 287 287 272 255 247 241 235 234 234 236 238 239 241 242 244 246 246 246 246 246 247 247
240 242 244 244 242 242 241 241 242 243 244 244 244 244 244 246 247 249 251 252 252 253 255 255 254 252 252 251 250 248 248 247 247 246 246 247 250 254 255 254 254 259 270 279 283 286 287 284 285 284 275 270 272 269 264 261 257 255 259 265 271 279 279 276 276 272 264 257 246 240 241 241 241 243 244 245 245 246 247 248 247 248 248 249 249
241 243 245 244 242 241 241 241 242 243 244 244 243 243 243 245 246 248 249 251 252 254 255 255 254 253 253 252 251 249 247 246 246 246 246 247 250 253 256 258 256 254 259 270 276 278 279 281 283 285 281 274 271 271 269 266 260 257 260 264 266 270 273 271 270 270 267 261 253 247 246 247 246 247 248 248 248 248 249 250 251 251 251 252 252
242 243 244 243 242 242 242 242 243 244 244 243 243 243 243 244 245 246 248 249 251 254 256 256 254 253 252 252 252 250 248 246 245 246 247 248 250 253 257 260 258 254 255 262 269 271 273 278 282 283 282 276 272 272 273 269 262 259 261 265 266 267 270 272 270 269 267 263 261 258 256 254 253 252 253 252 252 252 252 253 253 254 254 254 254
244 244 244 244 244 244 244 244 244 244 245 244 242 243 244 245 246 247 249 250 251 254 255 255 254 253 253 252 251 250 249 248 248 248 249 249 251 252 256 262 260 256 256 256 260 267 271 275 278 280 278 275 273 274 275 274 268 264 264 264 265 267 271 275 273 269 267 266 264 264 263 261 259 259 258 257 256 256 256 256 256 256 256 256 256
246 246 246 245 245 245 245 246 245 244 244 243 242 242 244 245 247 249 251 251 252 254 255 254 254 253 253 253 252 250 249 249 250 251 251 251 252 252 254 259 261 259 258 257 258 265 270 271 273 274 273 271 273 273 275 277 273 270 268 265 265 269 272 275 274 269 267 266 265 264 264 264 263 263 262 261 260 260 259 259 259 259 259 259 259
246 247 247 247 246 245 244 245 244 243 242 241 240 241 243 245 247 249 250 250 252 253 254 255 255 255 255 254 253 251 250 250 251 251 251 252 253 254 255 257 260 262 263 261 261 263 268 269 269 270 270 270 272 273 275 277 276 275 274 269 267 269 272 273 273 270 267 265 265 265 265 266 266 266 266 265 265 264 262 262 262 261 261 262 261
247 247 248 248 247 244 242 242 242 241 240 238 237 239 242 245 248 250 250 250 251 252 254 255 256 256 255 254 253 253 252 251 251 251 252 253 254 255 256 257 258 262 266 267 264 263 265 268 268 268 268 269 271 273 275 277 277 277 277 274 269 268 269 269 270 270 267 265 265 266 266 267 267 268 269 269 268 268 266 265 264 264 264 264 263
246 247 247 246 244 242 240 240 241 241 240 238 236 237 240 244 248 249 249 249 250 252 254 255 255 255 254 254 254 253 253 253 253 252 253 254 254 255 256 257 258 261 265 268 269 266 265 267 269 268 268 269 270 272 273 276 277 277 278 276 272 270 270 268 266 267 267 266 266 267 268 269 269 268 269 269 270 269 268 267 266 266 266 266 265
245 246 245 243 241 240 240 240 240 240 239 237 236 236 240 243 245 247 247 248 248 250 253 255 255 254 254 254 254 254 254 255 254 254 254 254 255 256 257 257 259 261 264 266 269 269 268 268 269 269 269 268 268 270 271 274 276 277 276 275 272 271 271 269 265 265 265 266 267 268 269 270 270 270 269 269 270 270 269 269 268 267 267 267 267
243 245 244 241 239 239 240 240 240 239 237 235 234 236 239 241 242 244 245 245 247 249 252 254 255 255 254 254 254 255 256 256 255 254 255 256 256 257 257 257 260 262 265 266 268 270 271 271 271 270 269 268 268 269 270 271 273 275 276 275 273 271 272 270 267 265 266 267 268 269 270 271 271 271 270 269 270 270 270 270 270 269 269 269 269
242 243 242 240 238 238 239 240 240 237 233 232 233 234 236 238 241 242 242 244 246 249 251 253 254 256 255 255 255 256 257 257 256 256 257 257 257 257 257 257 260 262 265 267 268 269 270 271 271 271 270 270 269 268 268 271 274 275 274 274 273 272 272 271 269 267 267 268 269 270 271 272 272 272 271 270 269 269 270 270 270 269 269 270 270
240 240 239 237 236 238 240 241 238 233 230 230 230 231 234 237 239 240 241 243 246 249 252 253 254 255 255 256 257 257 257 256 256 257 258 258 258 258 258 258 259 262 264 266 267 268 270 271 273 274 273 273 273 271 271 272 273 271 271 274 276 275 274 273 273 271 270 270 270 271 272 272 273 274 273 271 270 269 270 270 270 270 269 269 270
236 235 234 233 234 237 239 238 233 229 228 228 228 229 232 234 236 239 241 243 245 249 253 254 254 253 254 256 257 258 258 258 258 259 259 259 258 259 259 260 261 263 264 266 267 269 270 272 274 276 275 275 277 277 274 271 270 270 271 275 277 277 275 274 274 273 272 271 271 271 272 272 273 273 273 272 270 269 269 271 271 272 271 269 269
230 229 229 230 231 233 234 231 227 223 223 224 225 227 229 232 235 238 241 243 245 249 251 252 253 253 253 255 258 259 260 260 260 260 260 259 258 259 261 262 263 264 266 267 268 270 272 274 275 275 275 274 275 276 274 272 271 273 274 274 275 276 276 275 275 274 272 272 272 272 273 272 273 274 274 273 271 269 269 270 272 272 272 271 271
221 222 223 224 226 227 225 222 218 216 216 218 220 223 227 231 234 237 240 242 244 246 248 250 251 253 254 256 258 259 260 260 260 261 260 260 260 261 262 263 264 265 267 269 270 272 273 274 275 275 275 275 275 275 275 275 274 274 275 275 274 275 274 275 277 276 273 272 273 274 274 274 273 274 275 274 271 269 269 271 272 272 272 272 272
214 214 216 217 216 215 213 210 208 208 210 212 215 219 225 229 233 236 238 240 242 245 248 249 251 253 255 257 258 258 259 260 260 260 261 262 262 263 263 264 266 267 268 270 272 274 275 275 276 276 276 277 277 276 275 276 276 275 275 275 274 275 275 276 277 278 277 275 274 275 276 276 275 274 275 274 273 271 271 272 272 272 272 272 272
206 206 205 205 205 204 203 201 200 203 206 209 212 217 222 227 231 234 236 238 241 245 248 250 252 253 254 256 258 258 259 259 260 260 261 263 264 265 265 267 269 270 270 271 273 274 275 276 277 277 277 278 277 276 275 275 276 276 275 275 275 276 277 277 277 279 279 278 276 277 278 277 276 274 274 274 274 273 272 272 272 272 272 272 272
198 198 197 197 199 200 199 197 197 201 205 209 212 216 221 226 230 231 234 238 242 245 248 250 253 253 254 255 256 258 259 260 261 262 262 264 265 267 268 270 271 272 272 273 273 274 275 275 276 276 277 278 278 278 278 277 277 277 276 276 277 277 278 279 280 281 280 279 278 279 279 279 277 275 274 274 274 273 273 273 273 273 273 273 273
192 192 192 194 196 197 196 195 197 202 207 210 213 217 221 225 228 229 234 239 243 246 249 252 254 255 255 254 254 257 259 260 262 264 264 265 267 268 269 271 272 273 274 274 274 274 275 276 277 278 279 280 280 280 281 280 279 279 280 280 280 280 280 281 281 280 279 278 278 278 280 280 278 275 274 274 274 274 274 274 274 275 275 274 274
185 186 187 190 192 193 194 196 198 202 207 210 213 217 222 227 231 234 239 243 246 249 251 253 257 258 257 255 253 255 258 260 264 267 267 268 269 269 270 271 272 273 274 276 277 277 276 276 278 279 280 281 281 281 280 280 280 281 281 282 282 282 282 283 283 282 281 280 278 276 279 281 279 275 274 275 275 275 275 276 276 276 276 276 276
181 183 186 190 192 195 198 201 203 204 207 212 216 221 227 233 238 242 246 250 252 253 253 254 255 257 257 255 254 255 258 262 267 271 272 271 271 271 272 273 274 274 275 276 278 279 279 278 277 278 279 279 280 280 280 280 280 281 281 282 282 282 282 284 285 284 283 282 280 278 278 281 279 276 275 276 276 276 276 276 276 277 277 277 276
186 189 192 195 198 202 205 208 208 210 213 218 222 228 234 240 244 248 251 253 254 255 255 254 253 253 254 255 256 257 260 264 269 273 274 273 272 272 273 274 275 275 275 277 278 279 280 279 278 278 278 279 279 281 281 280 279 280 281 281 282 281 281 283 284 285 285 285 283 279 279 281 279 277 276 276 276 275 275 275 277 278 277 276 276
195 198 202 204 205 208 211 213 213 215 219 224 228 234 240 245 249 252 254 255 255 255 255 253 250 251 254 256 258 259 261 264 268 271 273 273 273 273 274 276 277 277 277 279 280 279 279 278 278 278 278 278 280 282 282 281 280 280 280 282 282 281 280 281 283 286 288 288 286 282 280 282 279 276 275 277 277 275 274 275 276 277 275 275 276